Flag for Greece Weather past 2 weeks in Iráklion, Crete, Greece

Now
54 °F

Passing clouds.


Feels Like: 53 °F
Forecast: 54 / 65 °F
Wind: 3 mph from North

Location: Heraklion Airport


UV Index: 5 (Moderate)

Visibility: N/A


Pressure: 29.74 "Hg

Humidity: 63%

Dew point: 41 °F

Location of IráklionLocation

Historic Weather in Iráklion

°F

Iráklion temperature yesterday

Maximum temperature yesterday: 72 °F (at 1:50 PM)
Minimum temperature yesterday: 55 °F (at 11:50 PM)
Average temperature yesterday: 62 °F

Past Weeks' High & Low Weather Summary

 TemperatureHumidityPressure
High75 °F (Apr 4, 1:20 PM)100% (Apr 8, 6:50 AM)30.09 "Hg (Apr 8, 6:50 AM)
Low48 °F (Apr 4, 6:50 AM)32% (Apr 5, 12:50 AM)29.71 "Hg (Apr 17, 1:50 PM)
Average61 °F72%29.93 "Hg
* Reported Apr 3 3:50 AM — Apr 18 3:20 AM, Iráklion, Weather by CustomWeather, © 2014

Note: Actual official high and low records may vary slightly from our data, if they occured in-between our weather recording intervals... More about our weather records

Advertising

Historic Weather Conditions — Data for Previous 24 hours

 ConditionsComfort  
Time TempWeatherWind HumidityBarometerVisibility
3:20 AM
Apr 18
54 °FPassing clouds.5 mph63%29.74 "HgN/A
2:50 AM54 °FPassing clouds.7 mph63%29.74 "HgN/A
12:50 AM55 °FPassing clouds.3 mph77%29.74 "HgN/A
12:20 AM55 °FPassing clouds.2 mph77%29.74 "HgN/A
11:50 PM
Apr 17
55 °FPassing clouds.3 mph77%29.74 "HgN/A
11:20 PM57 °FPassing clouds.5 mph77%29.74 "HgN/A
10:50 PM57 °FPassing clouds.3 mph77%29.74 "HgN/A
10:20 PM57 °FPassing clouds.2 mph82%29.71 "HgN/A
9:50 PM57 °FPassing clouds.3 mph82%29.71 "HgN/A
9:20 PM57 °FPassing clouds.5 mph77%29.71 "HgN/A
8:50 PM57 °FPartly sunny.10 mph77%29.71 "HgN/A
7:50 PM57 °FPartly sunny.10 mph77%29.71 "HgN/A
7:20 PM57 °FPartly sunny.10 mph77%29.71 "HgN/A
6:50 PM57 °FPartly sunny.13 mph77%29.71 "HgN/A
6:20 PM57 °FBroken clouds.13 mph82%29.71 "HgN/A
5:50 PM57 °FBroken clouds.15 mph82%29.71 "HgN/A
4:50 PM57 °FPartly sunny.13 mph82%29.71 "HgN/A
4:20 PM57 °FPartly sunny.16 mph82%29.71 "HgN/A
3:50 PM61 °FPartly sunny.24 mph77%29.71 "HgN/A
3:20 PM70 °FPartly sunny.17 mph60%29.71 "HgN/A
2:50 PM70 °FPartly sunny.18 mph60%29.71 "HgN/A
2:20 PM72 °FScattered clouds.24 mph53%29.71 "HgN/A
1:50 PM72 °FPartly sunny.21 mph53%29.71 "HgN/A
1:20 PM70 °FPartly sunny.20 mph57%29.74 "HgN/A
12:50 PM70 °FPartly sunny.22 mph57%29.74 "HgN/A
12:20 PM70 °FPartly sunny.22 mph57%29.77 "HgN/A
11:50 AM70 °FPartly sunny.20 mph57%29.77 "HgN/A
11:20 AM66 °FBroken clouds.20 mph60%29.77 "HgN/A
10:50 AM66 °FBroken clouds.20 mph60%29.77 "HgN/A
10:20 AM66 °FBroken clouds.16 mph60%29.77 "HgN/A
9:50 AM66 °FBroken clouds.15 mph60%29.77 "HgN/A
9:20 AM64 °FScattered clouds.10 mph68%29.77 "HgN/A
8:50 AM64 °FScattered clouds.21 mph68%29.77 "HgN/A
8:20 AM63 °FScattered clouds.18 mph73%29.77 "HgN/A
7:50 AM63 °FScattered clouds.18 mph73%29.77 "HgN/A
7:20 AM63 °FPassing clouds.20 mph68%29.77 "HgN/A
6:50 AM63 °FPassing clouds.25 mph68%29.77 "HgN/A
5:50 AM59 °FPassing clouds.8 mph77%29.77 "HgN/A
5:20 AM59 °FPassing clouds.16 mph77%29.77 "HgN/A
4:50 AM59 °FPassing clouds.20 mph77%29.77 "HgN/A
4:20 AM59 °FPassing clouds.18 mph77%29.80 "HgN/A
Weather by CustomWeather, © 2014

See weather overview